Wind_Speed
48 48 47 46 45 44 43 43 42 40 39 38 38 37 37 36 35 35 34 33 32 31 30 29 27 26 25 23 23 23 23 23 24 24 25 25 25 25 24 23 22 21 21 20 20 19 19 19 19 20 21 22 23 24 24 25 24 24 24 24 24 24 25 25 26 26 26 26 25
49 49 48 47 45 44 43 42 41 40 39 39 38 37 37 36 35 35 34 33 32 30 29 28 26 25 24 23 22 22 22 23 23 24 24 24 24 24 23 22 21 20 20 19 19 19 19 19 19 20 21 22 23 24 24 24 24 23 23 24 24 24 24 24 25 25 25 25 24
50 50 49 47 46 44 43 42 42 41 40 39 39 38 37 36 35 35 34 33 31 30 28 27 26 25 23 23 22 22 22 23 23 23 23 24 23 22 22 21 20 20 19 19 19 19 19 19 19 20 21 22 23 23 24 24 23 23 23 24 23 23 23 23 24 24 23 22 21
50 50 49 49 48 47 45 44 43 42 41 40 39 38 37 37 36 35 33 32 31 30 29 27 26 25 24 23 22 22 22 22 22 23 23 23 22 22 21 20 20 19 19 19 18 18 18 18 19 20 21 22 22 23 23 23 23 22 22 23 22 22 22 22 23 22 21 20 19
50 51 51 51 50 50 48 47 45 43 41 40 39 38 37 37 36 34 33 32 32 30 29 27 26 25 24 23 23 22 22 22 22 22 22 22 22 21 20 20 19 19 19 19 18 18 18 18 19 20 21 21 22 23 23 23 22 22 22 21 21 21 21 22 22 21 20 20 20
50 51 52 52 51 50 49 48 46 44 42 41 39 38 38 37 36 35 34 33 32 31 29 27 26 25 24 24 23 23 22 22 22 23 23 22 21 21 20 20 20 19 19 19 18 18 18 18 19 20 21 21 22 23 22 22 21 21 21 21 21 21 21 22 22 21 21 21 22
50 51 52 52 51 50 49 48 46 44 43 41 40 39 38 37 36 35 34 33 32 31 29 28 27 26 25 24 24 23 23 23 23 23 22 22 21 21 20 20 20 19 19 19 18 18 18 18 19 20 20 21 22 22 22 21 20 20 20 21 21 21 22 22 23 23 23 23 24
49 50 51 51 51 51 50 48 47 45 43 42 40 40 39 37 36 35 34 33 32 31 30 28 27 26 26 25 24 24 24 23 23 23 22 22 21 21 21 20 20 20 19 19 18 18 18 18 19 20 20 21 21 22 21 20 19 20 21 22 22 22 23 24 24 24 25 25 26
46 48 49 50 50 50 50 49 47 46 44 43 42 41 39 38 36 35 34 33 32 31 30 29 28 27 26 25 24 24 24 24 23 23 22 22 22 21 21 21 20 20 19 19 18 18 18 18 19 20 20 21 21 21 20 19 19 20 22 22 23 24 24 25 25 26 26 27 27
45 46 47 48 49 49 49 48 47 46 45 44 42 41 39 38 36 35 34 33 32 31 30 29 28 27 26 25 25 25 24 24 23 23 22 22 22 22 21 21 21 20 19 19 18 18 18 19 19 20 20 20 20 20 20 19 20 21 22 23 23 24 25 26 26 26 27 27 27
46 46 46 47 48 48 48 47 46 46 45 44 43 41 40 38 37 36 34 33 32 31 30 30 28 27 26 26 25 25 25 24 24 23 23 22 22 22 22 21 21 20 20 19 18 18 18 19 20 20 20 20 20 20 20 20 20 22 23 23 23 25 26 27 27 27 27 27 27
45 45 46 46 47 47 46 46 46 45 45 44 43 42 40 39 38 36 34 33 32 32 31 30 29 28 27 26 26 25 25 24 24 23 23 23 22 22 22 21 21 20 20 19 18 18 18 19 20 20 20 20 20 20 20 20 21 22 23 24 24 25 26 27 27 27 27 26 27
44 44 44 44 45 45 45 45 45 45 45 44 44 43 41 40 38 36 35 34 33 32 31 30 29 28 27 27 26 25 25 24 24 23 23 23 23 22 22 22 21 21 20 19 19 19 19 19 20 20 20 20 20 20 20 21 21 23 24 24 25 25 26 27 27 27 27 27 27
42 42 43 43 43 44 44 44 44 44 44 44 44 43 42 40 39 37 36 35 34 32 31 30 29 29 28 27 26 25 25 24 24 23 23 23 23 23 23 22 22 21 20 20 19 19 19 19 20 20 20 21 21 20 20 21 22 23 24 25 25 26 26 26 26 27 27 27 28
41 41 42 42 43 43 43 44 44 44 44 44 44 44 42 41 40 38 37 35 34 33 32 31 30 29 28 27 26 25 25 24 24 24 23 24 24 23 23 23 22 21 21 20 20 19 19 19 20 20 20 21 21 21 21 21 22 23 24 25 25 25 26 26 26 26 27 28 28
40 41 41 42 42 43 43 44 44 43 44 44 44 44 42 41 40 39 38 36 35 34 33 32 31 30 28 27 26 25 25 24 24 24 24 24 24 24 24 23 22 21 21 20 20 20 20 20 20 20 20 21 21 21 21 22 23 24 24 24 24 25 25 25 26 27 27 28 28
40 40 41 42 42 43 44 44 44 43 44 44 44 44 43 42 41 40 39 37 36 34 33 33 32 30 29 27 26 26 25 25 25 25 25 25 25 24 24 23 22 21 21 20 20 20 20 20 20 20 20 20 21 21 22 22 23 24 24 24 24 24 24 24 25 27 28 28 28
39 40 41 42 43 44 44 45 45 44 44 44 44 44 43 42 41 40 40 38 37 36 34 33 32 31 29 28 27 26 26 26 26 26 26 25 25 24 24 23 22 21 21 20 21 21 21 20 20 20 20 20 21 22 22 23 24 24 24 23 23 23 23 24 26 27 28 28 28
39 40 41 42 43 44 45 45 45 45 45 45 44 44 43 42 42 41 40 39 38 36 35 34 32 31 30 29 28 27 26 26 26 26 26 25 25 24 24 23 22 21 21 21 21 21 21 21 20 20 20 21 21 22 22 23 24 24 24 23 23 23 24 25 26 27 27 27 27
39 40 42 43 44 45 45 46 46 45 45 44 44 43 43 43 42 41 40 39 38 37 35 34 33 31 30 29 28 27 27 26 26 26 25 25 25 24 24 23 22 22 21 21 21 21 21 21 21 21 21 21 21 22 23 23 23 23 23 23 23 24 25 26 27 27 26 25 25
40 41 43 44 44 45 45 45 45 44 44 43 43 43 43 43 42 42 41 40 39 37 35 34 33 32 31 30 28 27 27 26 26 25 25 25 25 24 24 23 22 22 22 22 22 22 22 21 21 21 21 21 22 22 22 22 22 23 23 23 24 25 26 27 27 27 25 23 22
41 42 43 43 44 44 44 44 43 43 42 42 42 43 43 42 42 42 41 40 38 37 35 34 33 32 31 30 29 27 26 26 25 25 25 25 25 24 23 23 23 22 23 23 22 22 22 22 21 21 21 22 22 22 22 22 22 23 23 24 25 26 27 28 28 26 24 22 21
41 41 41 42 42 42 42 42 41 41 41 41 42 42 42 42 42 41 40 39 38 36 35 34 33 32 31 30 28 27 26 25 25 25 25 25 25 24 24 23 23 23 23 23 23 22 22 22 22 22 22 22 22 22 21 21 22 23 24 26 26 27 28 28 27 25 23 21 21
39 39 39 40 40 40 41 40 40 40 41 41 41 41 41 41 41 40 39 38 37 36 35 34 33 32 30 29 27 26 25 25 25 25 25 25 25 25 24 24 24 24 24 24 23 22 22 22 22 23 23 22 22 21 21 21 22 24 25 26 27 28 29 28 26 24 21 21 20
38 38 38 38 39 39 40 40 40 40 41 41 41 41 41 41 40 39 38 38 37 36 35 33 32 31 30 29 27 26 26 25 25 25 26 25 25 25 25 25 25 25 25 24 23 22 22 21 21 21 21 21 21 21 22 23 23 25 26 27 28 29 29 28 25 22 20 19 19
36 37 37 38 38 38 38 39 40 40 40 40 40 40 40 40 39 39 38 37 36 35 34 33 32 31 30 29 28 27 26 26 26 26 26 26 26 26 26 26 26 25 25 24 23 22 21 20 20 19 20 21 22 22 23 24 24 25 26 27 29 29 28 26 22 19 18 18 18
35 35 36 37 37 37 38 39 39 39 39 39 39 39 39 39 38 38 37 37 36 35 34 33 32 31 29 29 28 28 27 27 26 26 26 26 26 26 26 26 26 26 25 24 23 22 21 20 20 20 20 21 22 23 24 25 25 25 26 27 29 28 26 22 19 17 17 17 18
34 35 35 35 36 36 37 38 37 38 38 38 38 38 38 38 37 37 36 36 35 34 33 32 32 30 29 29 29 29 28 27 26 26 26 26 26 27 27 27 27 26 25 24 23 21 20 19 20 20 20 21 22 23 24 24 25 25 26 27 27 25 22 19 17 17 17 18 18
34 34 34 34 35 36 36 36 36 37 37 37 37 37 37 36 36 36 35 35 34 33 33 32 31 30 29 29 29 29 28 27 26 26 26 26 27 27 28 27 27 26 24 23 22 21 20 20 20 20 20 20 21 22 23 24 25 26 26 26 25 22 19 18 17 17 17 18 18
34 34 34 35 35 35 35 36 36 36 36 35 35 35 35 35 35 35 34 34 34 34 33 32 31 30 30 30 30 29 29 27 26 25 26 27 27 28 28 27 27 25 24 23 22 21 20 20 20 20 20 20 20 21 22 24 25 25 25 24 22 21 19 18 17 17 17 18 18
33 33 34 34 35 35 35 35 35 34 34 33 33 33 33 33 34 34 34 34 34 33 32 31 30 30 30 30 30 29 28 27 26 26 26 27 28 28 28 27 26 25 24 23 22 21 20 19 19 20 20 20 20 21 22 23 24 24 23 22 21 20 20 18 17 17 17 18 18
33 33 33 33 33 33 33 33 32 32 32 32 32 32 32 32 33 33 33 33 32 31 30 29 29 29 30 30 30 29 28 27 26 26 27 27 27 28 27 27 26 25 24 23 22 21 20 19 19 19 19 19 19 20 21 22 23 23 22 21 20 20 19 18 16 16 17 17 18
32 32 32 32 32 31 31 30 30 30 30 30 30 31 31 31 31 31 31 30 29 29 28 29 29 30 30 30 30 29 28 28 27 27 27 27 27 27 27 27 26 25 24 23 22 21 20 19 19 19 19 19 19 20 21 22 22 22 21 20 20 20 19 17 16 16 16 16 17
31 31 31 31 30 29 28 28 28 28 29 29 29 29 29 29 29 29 29 29 28 28 29 30 31 31 31 31 30 29 28 28 27 27 27 27 27 27 27 27 27 26 24 23 22 20 19 19 19 19 18 18 19 19 20 21 22 21 20 19 19 19 19 17 16 15 15 15 16
30 30 29 29 28 27 27 27 27 27 27 27 28 28 28 28 28 28 29 29 29 29 29 30 31 31 31 31 30 29 28 28 28 28 27 27 27 27 27 27 27 26 24 23 21 19 18 18 18 18 18 18 18 19 20 20 21 21 20 20 20 20 19 18 16 15 14 14 15
29 29 28 27 27 26 26 26 26 26 26 27 27 27 28 28 29 30 30 30 29 29 30 31 31 31 30 30 30 29 29 29 28 28 28 27 27 27 27 27 27 26 24 23 21 19 18 18 18 18 18 18 18 19 19 20 20 20 20 20 20 20 20 19 17 15 14 13 14
28 28 28 27 26 26 25 26 26 26 27 28 28 29 29 30 31 32 32 31 30 31 31 31 31 31 31 31 30 30 30 29 29 29 28 27 27 27 27 27 27 26 24 22 21 20 19 18 18 17 17 17 18 18 19 19 20 20 20 20 20 20 20 19 18 16 14 14 14
28 28 28 27 27 26 26 26 27 28 29 29 30 31 32 32 33 33 33 32 32 32 32 32 32 32 33 32 31 31 30 30 29 29 28 28 27 27 27 27 27 26 24 22 21 20 19 17 17 17 16 17 17 18 18 19 19 20 20 20 20 21 20 20 18 17 15 15 15
28 28 29 29 28 28 28 28 29 30 31 31 32 32 33 33 34 34 34 33 33 33 33 33 34 34 34 33 32 31 31 30 29 29 28 28 27 26 26 27 27 26 24 22 21 20 19 17 17 16 16 16 17 18 18 19 20 20 21 21 21 21 21 20 19 17 17 16 16
28 29 30 31 31 31 31 31 32 32 32 32 32 32 33 34 34 34 33 33 33 33 33 34 34 34 34 33 32 31 30 30 30 29 28 28 26 26 26 27 27 26 24 22 21 20 18 17 16 16 16 16 17 17 18 18 19 20 21 21 21 21 21 20 19 18 17 17 16
29 30 31 33 33 33 33 33 33 33 33 33 33 33 34 33 33 32 32 31 32 32 33 33 33 33 33 32 31 30 30 30 30 29 28 27 26 26 26 26 26 26 24 22 21 19 18 17 16 16 16 16 16 17 17 18 19 20 21 21 21 21 20 20 19 19 18 17 16
Wind_Direction
222 223 224 224 225 227 228 229 230 231 232 232 232 233 233 233 233 234 235 236 237 238 240 241 242 243 243 242 240 239 238 238 238 238 239 241 243 244 247 249 252 254 256 258 260 260 261 263 265 268 271 274 276 278 279 281 283 284 285 286 286 286 285 283 282 280 279 277 275
222 223 224 224 225 226 228 229 230 230 231 233 234 235 235 234 234 235 236 237 238 239 240 241 242 242 242 240 239 237 236 236 236 237 238 240 243 245 247 250 252 254 256 257 259 259 261 263 267 270 273 274 276 278 280 281 283 285 286 287 287 287 285 283 281 280 279 278 277
222 223 223 224 224 225 226 227 229 230 231 233 234 235 236 235 235 236 236 237 238 239 240 240 241 241 241 240 238 237 236 236 236 237 238 240 242 245 247 250 252 254 255 257 258 260 262 265 268 271 273 275 277 279 281 282 283 285 286 287 287 286 284 281 280 279 278 276 274
222 222 222 223 224 225 226 227 229 230 231 233 234 235 235 235 236 236 237 238 238 238 238 239 240 240 240 239 238 237 236 237 237 238 239 241 243 245 247 250 252 253 254 256 258 260 263 267 269 271 273 274 276 278 280 282 284 285 287 288 287 285 283 281 280 278 276 273 271
222 222 223 224 225 226 227 229 230 231 232 233 234 234 235 235 235 235 236 236 237 237 237 238 239 239 239 238 237 237 237 237 238 239 240 241 243 245 247 249 251 253 254 255 258 261 264 267 269 270 272 274 275 277 279 282 285 287 288 288 287 285 283 281 280 278 275 273 272
222 222 223 224 225 226 227 229 230 231 232 233 233 233 233 234 234 234 234 234 235 236 236 237 237 237 238 237 237 237 237 237 238 239 241 242 244 246 247 249 251 252 254 256 258 261 264 266 268 269 271 273 275 277 280 283 286 288 289 289 288 286 284 281 280 277 274 273 272
223 223 223 224 225 225 226 228 229 231 232 232 232 232 233 234 233 233 233 234 235 235 235 235 235 235 236 236 236 236 237 237 238 239 241 243 245 247 248 249 251 252 254 256 259 261 263 265 266 268 270 272 275 277 280 283 287 288 289 288 288 286 284 281 280 277 274 273 274
224 224 224 224 225 225 226 227 228 229 230 231 232 233 234 235 234 234 234 234 234 234 234 234 234 235 235 236 236 237 237 237 238 239 241 243 245 247 249 250 251 253 255 256 259 261 262 263 265 267 269 272 274 277 281 284 287 288 287 287 288 287 285 283 281 279 276 276 276
223 224 224 225 225 225 226 227 227 228 228 230 232 233 235 235 234 234 233 233 233 233 233 233 234 234 235 236 236 237 237 238 238 239 241 243 245 247 248 250 251 253 254 256 258 259 261 262 263 265 268 271 274 278 281 285 286 286 286 286 287 288 288 286 284 282 279 278 277
222 223 224 224 225 225 226 226 227 228 229 230 232 234 234 234 234 233 232 232 232 232 232 233 233 234 234 235 236 237 237 238 239 240 241 242 244 246 248 250 251 253 254 256 257 258 259 261 262 264 267 270 274 278 281 284 284 285 285 286 287 288 289 289 287 284 281 279 277
222 223 223 223 224 225 225 225 226 227 228 230 231 233 233 233 233 232 232 232 231 231 231 232 232 233 233 235 236 236 237 238 239 240 241 243 244 246 248 250 251 253 254 255 255 256 258 260 262 265 268 271 274 277 280 282 284 285 286 287 288 289 289 290 289 286 283 280 280
222 223 223 224 224 224 224 224 225 226 227 228 230 231 232 233 233 232 231 231 230 230 231 231 232 232 233 234 235 236 237 238 239 240 241 243 244 246 248 250 251 252 254 254 255 255 257 259 263 266 269 272 274 277 279 282 284 286 287 288 289 289 290 290 290 288 286 284 283
222 223 223 224 224 224 224 224 225 225 226 227 229 230 231 232 232 231 230 230 230 230 230 231 231 231 232 233 235 235 236 237 239 240 241 243 245 246 248 249 250 252 253 253 254 255 256 259 263 266 270 272 274 277 279 283 284 286 287 288 289 289 290 291 291 290 288 286 284
222 222 222 223 223 223 223 224 224 225 226 227 228 229 230 231 231 230 229 229 229 230 230 230 230 231 231 233 234 235 236 237 238 240 241 243 244 246 247 248 250 251 252 253 254 255 256 259 262 266 270 273 275 277 280 282 284 285 286 288 289 289 290 291 292 291 290 287 286
221 221 222 223 223 223 223 223 224 225 225 226 228 229 229 230 229 229 229 229 229 229 229 230 230 230 231 232 233 234 236 237 238 239 241 242 244 245 247 248 249 250 251 253 254 255 257 259 262 266 269 273 275 278 280 282 284 285 286 287 288 289 290 291 292 292 290 289 288
220 221 221 221 222 222 222 223 223 224 225 226 227 228 228 228 228 228 228 228 228 228 229 229 229 229 230 230 232 233 235 236 237 238 240 241 243 245 246 248 249 250 251 253 254 256 258 260 262 266 269 272 275 278 281 283 285 285 286 286 287 288 289 290 292 292 291 290 288
220 220 220 221 221 222 222 223 223 224 225 226 227 227 228 228 227 227 227 227 227 227 228 229 229 229 229 229 230 231 233 234 236 238 239 241 243 245 246 248 249 250 251 253 254 256 258 260 263 266 269 272 276 279 281 284 285 286 286 286 287 287 289 291 293 293 292 290 288
220 220 220 220 221 222 223 223 223 224 225 226 226 227 227 227 227 226 226 227 226 227 227 228 228 228 228 228 229 230 231 233 235 237 239 241 243 245 247 249 250 251 252 253 255 257 259 261 263 266 269 272 275 278 281 283 285 285 286 286 287 289 291 293 295 294 292 290 288
220 220 220 221 222 223 223 224 224 224 225 226 226 227 227 227 226 226 226 226 226 226 227 227 228 228 228 228 228 229 231 233 236 238 240 242 244 246 247 249 250 251 251 253 255 258 260 262 265 267 269 272 275 278 281 283 284 285 286 287 289 291 293 295 296 296 294 291 290
220 220 221 222 223 223 224 224 225 225 225 226 226 226 226 227 227 226 225 225 226 226 226 227 227 227 227 227 228 229 231 233 236 238 240 242 244 246 247 249 250 251 252 253 255 258 261 263 265 267 270 273 275 278 280 282 283 285 286 288 290 293 295 297 298 297 296 294 291
222 222 222 223 224 224 225 225 225 226 225 225 225 226 226 227 226 225 225 225 226 226 225 226 226 227 227 227 227 228 230 232 235 238 240 242 244 246 247 249 250 251 252 253 255 258 261 263 266 268 270 273 276 278 280 282 284 286 288 290 293 295 297 299 299 299 297 293 289
223 224 224 224 224 225 226 226 226 225 225 225 225 226 226 226 226 226 226 226 225 225 225 225 226 227 227 226 226 227 229 231 235 238 240 242 244 246 248 249 249 250 252 253 255 258 261 264 266 268 270 273 275 278 280 283 285 288 291 293 295 297 299 300 300 299 296 291 287
225 225 225 225 225 225 226 226 225 225 224 224 225 225 225 225 226 226 225 224 224 224 224 225 226 227 227 227 227 227 228 230 234 237 240 242 244 245 247 248 249 250 251 253 255 258 261 264 267 268 270 272 275 278 282 285 288 290 292 295 297 298 299 300 298 296 292 287 284
225 225 225 225 225 225 225 225 225 224 224 224 224 224 224 224 225 224 223 223 223 223 224 225 226 226 227 227 227 227 227 229 232 236 239 241 243 244 246 247 248 249 251 253 256 259 262 266 269 271 273 275 279 282 285 288 289 290 292 294 295 295 295 294 293 290 287 284 282
226 225 225 225 224 224 224 224 223 223 223 224 224 224 223 223 223 222 221 221 222 222 223 224 225 225 226 226 226 226 227 229 231 235 237 240 242 244 245 246 247 249 251 254 256 259 262 265 268 271 275 279 281 284 286 287 288 288 289 290 289 288 287 286 285 284 282 281 283
226 225 225 225 224 224 224 224 224 224 224 223 223 222 222 222 222 221 220 220 221 222 222 223 223 224 224 224 224 225 226 228 231 234 237 240 242 244 245 246 247 249 251 254 257 259 262 263 262 265 269 273 276 278 279 280 282 284 285 286 286 284 283 282 282 282 282 283 285
226 225 225 225 225 224 224 224 224 224 223 222 222 221 221 221 220 219 219 219 220 221 221 221 222 222 223 223 223 224 225 227 230 233 237 240 242 244 245 247 248 250 252 255 257 260 261 260 259 260 263 266 269 271 273 275 278 281 283 284 284 284 282 281 282 283 285 285 287
225 225 225 224 224 224 224 224 223 223 222 222 221 221 220 220 218 218 218 218 219 219 219 219 220 221 221 221 223 224 225 226 229 233 237 240 243 244 246 247 248 250 253 255 258 260 259 258 259 261 263 265 268 270 273 275 277 278 280 282 283 284 284 283 285 286 286 287 288
226 225 224 223 223 224 224 223 222 222 222 221 221 220 219 218 217 217 217 216 216 216 217 218 218 218 218 220 222 224 225 226 229 232 236 240 243 245 247 248 249 251 253 255 258 258 258 258 260 262 263 266 268 270 272 273 274 276 278 281 284 287 288 288 288 288 286 286 286
226 224 223 223 223 223 223 222 222 222 222 221 220 218 217 217 216 216 215 215 215 216 217 217 216 216 216 219 222 224 225 226 228 232 236 239 242 245 247 248 250 251 253 255 257 257 257 258 260 262 264 266 268 269 270 272 273 275 278 281 287 291 292 292 289 287 285 284 284
225 224 223 222 222 222 222 222 222 221 220 219 218 217 216 215 215 215 215 215 216 217 217 217 216 216 218 219 221 223 225 226 228 232 235 238 241 244 247 249 250 252 254 255 257 257 257 258 260 263 265 267 268 268 270 271 274 275 278 283 288 292 293 291 287 284 281 281 282
225 224 223 222 222 222 222 222 221 220 219 218 217 216 215 215 215 216 216 216 216 215 215 215 215 217 218 220 221 223 225 227 229 232 235 238 241 244 247 249 251 253 254 255 256 256 257 258 260 263 265 268 268 269 270 272 274 275 279 283 288 291 290 287 284 280 278 278 280
225 223 222 222 222 222 222 221 220 218 217 216 216 215 215 215 216 216 216 215 215 214 213 214 215 216 217 218 220 222 224 227 230 232 235 238 241 244 247 249 251 252 254 255 255 256 257 259 261 263 266 268 269 270 271 273 274 276 279 283 287 288 287 284 280 278 277 277 279
224 223 222 221 221 221 220 219 218 217 216 215 215 215 214 214 214 214 214 214 214 215 216 217 218 219 219 220 220 221 223 227 230 232 235 238 241 244 247 249 251 252 253 254 254 254 256 258 261 264 267 269 270 270 271 273 274 277 279 282 284 285 284 282 280 278 278 277 279
223 221 221 221 220 219 219 218 216 215 214 213 213 213 213 213 213 214 214 215 215 216 217 219 220 220 221 221 221 222 223 226 230 232 235 237 240 243 246 248 250 252 253 254 254 253 254 258 261 264 267 269 270 270 270 272 274 276 277 278 280 282 283 282 281 280 280 279 280
222 220 220 219 219 218 217 216 214 213 212 212 211 211 211 212 214 215 215 215 215 216 217 218 218 218 218 219 220 222 224 226 229 232 235 237 239 242 245 248 250 251 252 252 253 252 253 257 260 264 267 269 269 268 269 271 272 273 274 274 277 279 282 282 282 281 281 281 283
222 220 218 218 217 216 215 214 213 211 211 211 211 211 211 211 213 214 215 214 214 214 215 216 215 215 216 217 219 221 223 226 229 231 234 236 239 241 244 247 249 250 251 251 251 251 253 256 260 263 266 267 267 267 268 269 270 271 272 273 275 278 281 282 281 280 281 283 285
222 219 217 216 216 215 214 213 212 211 211 212 212 212 212 212 212 213 213 212 212 212 213 214 214 215 217 218 219 221 223 225 227 230 233 236 238 241 244 247 249 250 250 249 249 249 251 254 258 262 264 265 266 267 268 268 270 271 272 273 275 278 280 281 280 279 281 285 287
222 219 217 216 215 214 213 213 212 212 213 213 212 212 212 212 212 212 212 212 212 213 213 213 215 217 218 219 219 220 222 225 227 230 233 236 238 241 243 246 249 250 250 249 248 249 250 253 257 260 261 263 265 266 267 268 270 272 273 274 276 279 281 280 279 279 282 286 287
222 220 218 216 215 214 213 213 214 214 214 213 212 212 212 212 213 213 213 212 212 213 214 215 217 218 218 218 217 218 221 225 227 230 232 235 238 240 243 246 248 250 250 249 248 248 250 252 255 258 260 262 263 264 265 266 268 271 273 274 276 278 281 282 282 282 283 284 284
223 221 218 217 216 214 213 213 214 215 215 214 213 213 214 214 214 213 211 211 211 212 214 215 217 217 217 216 216 217 220 224 227 230 232 235 237 239 241 244 247 249 250 249 248 248 249 251 254 256 258 260 262 263 263 264 265 267 269 270 273 276 280 284 285 285 282 281 280
Height
786 787 788 790 791 792 792 794 795 796 797 798 799 800 801 802 803 805 806 807 808 809 810 811 812 813 814 815 816 817 818 818 819 820 820 820 821 821 822 822 822 822 822 822 822 822 822 822 822 821 821 820 819 819 818 818 817 817 817 816 815 815 815 815 815 815 815 814 814
783 784 785 787 788 790 790 791 792 794 795 795 797 798 799 800 801 802 803 804 805 807 808 809 810 811 812 813 814 815 815 816 817 817 818 818 819 819 820 820 820 820 820 820 820 820 820 820 820 819 819 818 817 817 816 816 816 815 815 814 813 813 813 813 812 812 812 812 812
779 781 782 784 785 786 787 788 789 790 792 793 794 795 797 797 799 800 801 802 804 805 806 807 808 809 810 811 812 813 813 814 815 815 816 816 817 817 817 818 818 818 818 818 818 818 818 818 818 817 817 816 815 815 814 814 814 813 813 812 812 811 811 811 810 810 810 810 810
776 778 779 780 781 782 783 784 785 787 789 790 792 793 794 795 796 798 799 800 802 803 804 805 806 807 808 809 810 810 811 812 812 813 813 814 814 815 815 815 815 815 816 816 816 816 816 816 816 815 815 814 814 813 812 812 812 812 811 810 810 810 809 809 809 809 809 808 807
773 774 775 776 777 778 780 781 783 785 786 788 789 790 791 793 794 795 797 798 799 800 801 803 804 805 806 807 807 808 809 810 810 811 811 812 812 812 813 813 813 813 813 814 814 814 814 814 814 813 812 812 812 811 810 810 810 810 809 808 808 807 807 807 807 807 807 806 805
769 770 771 772 774 776 777 779 780 782 784 785 786 787 788 790 791 793 794 795 796 798 799 801 802 802 803 804 805 806 806 807 808 808 809 809 810 810 811 811 811 811 811 812 812 812 812 812 812 811 811 810 810 809 809 809 808 808 807 806 806 805 805 805 805 805 805 804 803
765 766 768 769 771 773 775 776 778 780 781 782 783 784 785 787 788 790 791 793 794 796 797 798 799 800 801 802 802 803 804 805 805 806 807 807 808 808 808 809 809 809 809 810 810 810 810 810 810 809 809 808 808 807 807 807 807 806 805 804 804 803 803 803 803 803 802 801 800
762 764 765 767 768 770 772 774 775 777 778 779 780 781 782 784 786 787 789 791 792 793 794 795 797 797 798 799 800 801 802 802 803 804 805 805 805 806 806 807 807 807 807 807 808 808 808 808 807 807 807 806 806 805 805 805 805 804 803 802 802 801 801 801 801 800 800 799 798
761 762 763 765 766 768 769 771 772 774 775 776 777 778 780 782 784 785 787 788 789 791 792 793 794 795 796 797 798 798 799 800 801 802 802 803 803 804 804 805 805 805 805 805 806 806 806 806 805 805 805 805 804 804 804 804 803 802 801 800 800 799 799 799 798 798 797 797 796
757 759 760 762 764 765 767 769 770 771 772 773 775 776 778 780 781 782 784 785 787 788 789 790 792 793 794 795 795 796 797 798 798 799 800 801 801 802 802 802 803 803 803 803 804 804 804 804 803 803 803 803 802 802 802 802 801 800 800 799 798 797 796 796 796 796 795 794 793
755 756 758 759 761 763 765 766 767 768 770 771 772 774 775 777 778 780 782 783 784 785 786 788 789 790 791 792 793 794 795 795 796 797 798 799 799 800 800 800 800 801 801 801 802 802 802 802 801 801 801 801 801 800 800 800 799 799 797 797 796 795 794 793 793 793 793 792 791
753 754 756 757 759 760 762 763 764 765 767 768 770 771 773 774 776 777 779 781 782 782 784 785 787 788 789 790 790 791 792 793 794 795 795 796 797 797 798 798 798 799 799 799 800 800 800 800 799 799 799 799 799 798 798 798 797 797 795 794 794 793 792 791 791 791 790 790 789
751 753 754 755 757 758 760 761 762 763 764 765 767 768 770 772 773 775 777 778 779 780 781 783 784 785 786 787 788 789 790 791 792 792 793 794 795 795 796 796 796 796 797 797 798 798 798 797 797 797 797 797 797 796 796 796 795 795 793 792 792 791 790 789 788 788 788 787 787
750 751 752 753 755 756 757 758 759 760 761 762 764 765 767 769 771 772 774 775 776 778 779 780 781 782 783 785 786 787 788 789 790 790 791 792 792 793 793 794 794 794 795 795 795 796 796 796 795 795 795 795 794 794 794 794 793 792 792 790 789 788 787 787 786 786 786 785 784
748 749 750 751 752 753 754 755 756 757 758 760 761 763 765 767 768 770 771 772 774 775 777 778 779 780 781 782 783 785 786 787 787 788 789 790 790 791 791 791 792 792 792 793 793 794 794 794 794 793 793 793 792 792 792 792 791 790 790 788 787 786 785 785 784 784 783 783 782
745 746 747 748 749 750 751 752 753 754 755 757 758 760 762 764 765 767 768 770 771 773 774 775 776 777 779 780 781 782 783 784 785 786 787 787 788 788 789 789 790 790 790 791 791 791 792 792 792 792 791 791 790 790 790 789 789 788 787 786 785 784 784 783 782 782 781 780 780
743 744 745 746 746 747 748 749 750 751 752 754 755 757 759 760 762 764 765 767 768 770 771 772 774 775 776 777 779 780 781 782 783 783 784 785 786 786 787 787 787 788 788 789 789 789 790 790 790 790 789 789 788 788 787 787 787 786 785 784 783 782 781 781 780 780 779 778 777
740 741 742 743 743 744 744 745 747 748 749 750 752 754 756 757 759 760 762 764 765 767 768 770 771 772 774 775 776 777 778 779 780 781 782 783 784 784 785 785 785 786 786 787 787 787 787 788 788 788 787 787 786 786 785 785 784 784 783 782 781 780 779 779 778 777 777 776 775
737 738 739 740 740 740 741 742 744 745 746 747 749 751 752 754 756 757 759 760 762 764 765 767 768 770 771 772 773 775 776 777 778 779 780 781 782 782 783 783 783 784 784 785 785 785 785 785 786 786 785 785 785 784 783 783 782 782 781 780 779 778 777 776 776 775 774 773 772
734 735 736 736 737 737 739 740 741 742 744 745 747 748 750 751 752 754 755 757 759 761 762 764 765 767 768 770 771 772 773 774 775 777 778 779 779 780 780 781 781 782 782 782 783 783 783 783 784 784 783 783 782 782 781 781 780 780 778 777 776 775 775 774 773 773 772 771 770
731 732 732 733 734 735 736 737 739 740 742 743 744 745 747 748 750 751 752 754 756 758 760 761 762 764 765 767 768 769 771 772 773 775 775 776 777 778 778 779 779 780 780 780 780 781 781 781 781 781 781 781 780 780 780 779 778 777 776 775 774 773 772 771 771 770 770 769 768
728 728 730 731 732 733 735 736 737 739 740 741 742 743 744 745 747 748 750 752 753 755 757 758 760 761 763 764 765 767 769 770 771 772 773 774 775 776 776 777 777 777 778 778 778 779 779 779 779 779 779 779 778 778 778 777 776 775 774 773 772 771 770 769 768 768 768 767 767
725 727 728 729 730 732 733 735 736 737 738 739 740 741 742 743 744 746 748 749 751 752 754 756 757 759 760 762 763 765 767 768 769 770 771 772 773 773 774 775 775 775 775 775 776 777 777 777 777 777 777 777 776 776 776 775 774 773 772 770 769 768 767 767 766 766 766 765 765
724 725 727 728 729 730 731 732 734 735 736 737 738 739 740 741 742 744 745 747 748 750 752 753 755 757 758 760 762 763 765 766 767 768 769 770 771 771 772 772 772 772 773 773 774 775 775 775 775 775 775 775 774 774 773 773 772 771 770 769 767 766 765 765 765 765 764 764 763
723 724 725 726 727 728 729 730 731 732 733 734 735 737 738 739 740 742 743 744 746 747 750 751 753 755 756 758 759 761 762 763 765 766 767 768 769 769 770 770 770 770 770 771 772 773 773 773 773 773 772 772 772 771 771 770 770 769 768 767 766 765 764 763 763 763 763 762 762
721 722 723 724 725 726 727 728 728 729 731 732 734 735 736 737 738 740 741 742 744 746 747 749 751 752 754 756 757 758 760 761 762 763 765 766 766 767 767 767 768 768 768 769 770 771 771 771 772 772 771 771 770 770 769 769 768 768 767 766 765 764 763 762 762 761 761 760 760
720 721 722 722 724 725 725 726 727 728 729 730 732 733 734 735 737 738 739 740 742 744 745 747 749 750 752 753 755 756 757 758 759 761 762 763 764 765 765 765 765 766 766 767 768 768 769 770 770 770 770 770 769 768 768 767 767 766 765 764 763 762 761 760 760 759 759 758 758
718 719 720 721 722 722 723 724 726 727 727 729 730 731 733 734 735 737 738 739 740 742 744 745 746 748 750 751 752 753 754 755 757 759 760 761 762 762 762 763 763 763 764 765 766 766 767 767 768 768 768 768 767 767 766 765 765 764 763 762 761 760 760 759 758 757 757 756 756
716 717 718 719 720 720 721 722 723 724 726 727 729 730 732 733 734 735 736 737 739 740 742 743 744 746 747 749 750 751 752 754 755 756 758 759 759 759 760 760 761 761 762 763 764 764 765 765 765 766 766 766 765 765 764 764 763 762 761 760 760 759 758 757 757 756 755 755 754
713 715 716 716 717 718 719 720 721 722 724 726 728 729 730 731 732 734 735 736 737 738 739 741 742 744 745 746 748 749 750 752 753 754 755 756 756 757 757 758 758 759 760 761 762 762 763 763 763 763 764 764 763 763 762 761 761 760 759 759 758 757 757 756 755 754 754 753 752
711 712 713 714 715 715 716 718 719 721 723 725 726 728 729 730 731 732 733 734 735 737 738 740 741 742 743 744 746 747 749 750 751 752 752 753 754 754 755 755 756 757 758 759 760 760 760 761 761 761 761 761 761 761 760 759 759 758 757 757 756 756 755 754 754 753 752 751 751
709 710 711 712 712 714 715 717 719 720 722 723 725 726 727 728 729 731 732 733 735 736 738 739 740 741 742 743 744 745 747 748 748 749 750 750 751 752 753 753 754 755 755 757 757 758 758 758 759 759 759 759 759 758 758 757 757 756 756 755 755 754 753 753 752 751 751 750 749
707 708 709 710 711 712 714 716 718 719 721 722 723 725 726 727 729 730 732 733 735 736 737 737 738 739 740 741 742 743 744 745 746 747 747 748 749 750 751 751 752 752 753 754 755 755 756 756 757 757 757 757 757 756 756 755 755 754 754 753 753 752 752 751 751 750 749 748 748
705 707 708 709 710 712 714 715 717 718 719 721 722 723 725 727 728 730 731 732 734 735 735 736 736 737 737 738 739 740 742 743 743 744 745 746 747 748 748 749 749 750 751 752 752 753 754 754 754 755 755 755 754 754 753 753 752 752 752 751 751 751 750 750 749 748 747 747 746
704 705 707 708 710 711 713 714 715 717 718 720 721 722 724 725 727 728 730 731 732 733 733 734 734 735 735 736 737 738 739 740 741 742 743 744 745 746 746 746 747 747 749 750 750 751 752 752 752 752 752 752 752 752 751 751 750 750 750 750 749 749 749 748 747 747 746 745 745
703 704 705 707 709 710 712 713 714 716 717 718 719 720 722 723 724 726 727 728 729 730 730 731 731 732 733 734 735 736 737 737 738 740 741 742 742 743 744 744 744 745 746 747 748 749 749 750 750 750 750 750 750 750 749 749 748 748 748 748 747 747 747 746 746 745 744 743 743
701 702 704 706 707 709 710 711 713 714 715 715 716 717 718 719 720 722 723 724 725 726 726 727 728 729 730 731 732 732 733 735 736 737 738 739 740 741 741 741 742 743 744 745 746 746 747 747 748 748 748 748 748 747 747 747 747 746 746 746 745 745 745 745 744 743 742 742 741
699 700 702 704 705 707 708 709 710 710 711 712 712 713 714 715 716 717 718 720 721 722 722 724 725 725 726 727 728 730 731 732 733 735 736 736 737 738 738 739 739 740 741 743 744 744 745 745 746 746 746 746 746 745 745 745 745 744 744 744 743 743 743 743 742 741 741 740 739
696 698 699 701 702 703 704 705 706 706 707 707 708 709 710 711 712 713 714 716 717 718 719 720 721 722 724 725 726 727 728 729 731 732 733 734 735 735 736 736 737 737 739 740 741 742 742 743 743 744 744 744 744 743 743 743 743 742 742 742 741 741 741 741 740 740 739 738 738
693 694 695 697 698 699 700 700 701 702 703 704 705 706 707 708 709 710 712 713 715 716 717 718 719 720 722 723 724 725 726 727 728 729 730 731 732 733 734 734 734 735 736 738 739 740 740 741 741 742 742 742 742 741 741 741 741 740 740 740 740 739 739 739 738 738 737 736 736
689 690 691 692 692 693 695 696 697 698 700 701 702 703 705 706 707 709 710 711 712 714 715 716 717 718 720 721 721 722 723 724 725 727 728 729 730 731 732 732 732 733 734 735 736 737 738 738 739 740 740 740 740 740 740 739 739 738 738 738 738 738 737 737 736 736 735 735 735